When you browse on this site, cookies collect data to enhance your experience and personalize the content and advertising you see.
Visit our Privacy Policy to learn more. By continuing to use the site, you agree to this use of cookies and data.
  • en Suisse
  • Liste des pays
  • À 7 jours
  • Température de l'eau
  • Carte météo
  • Widgets météo
  • user-avatar
    Se connecter

    Météo par heure à Zibrovo

    Ce jour, 18 Février, Mardi

    Heure Température Précipitation Vent Pression Humidité
    00:00 -1°C° 0.7 mm 6 m/s 745 mmHg 91%
    01:00 0°C° 0.7 mm 5 m/s 745 mmHg 94%
    02:00 0°C° 0.7 mm 5 m/s 745 mmHg 98%
    03:00 0°C° 0.7 mm 5 m/s 745 mmHg 98%
    04:00 0°C° 0.7 mm 4 m/s 745 mmHg 98%
    05:00 0°C° 0.7 mm 4 m/s 745 mmHg 98%
    06:00 0°C° 0.3 mm 4 m/s 745 mmHg 98%
    07:00 0°C° 0.3 mm 4 m/s 745 mmHg 98%
    08:00 0°C° 0.3 mm 4 m/s 745 mmHg 98%
    09:00 0°C° 0.2 mm 4 m/s 744 mmHg 98%
    10:00 0°C° 0.2 mm 4 m/s 744 mmHg 98%
    11:00 0°C° 0.2 mm 4 m/s 744 mmHg 99%
    12:00 0°C° 0.9 mm 4 m/s 744 mmHg 99%
    13:00 +1°C° 0.9 mm 3 m/s 743 mmHg 99%
    14:00 0°C° 0.9 mm 3 m/s 743 mmHg 99%
    15:00 0°C° 0.7 mm 3 m/s 743 mmHg 98%
    16:00 0°C° 0.7 mm 3 m/s 742 mmHg 98%
    17:00 0°C° 0.7 mm 3 m/s 742 mmHg 98%
    18:00 +1°C° 0.5 mm 2 m/s 742 mmHg 98%
    19:00 +1°C° 0.5 mm 2 m/s 742 mmHg 98%
    20:00 +1°C° 0.5 mm 2 m/s 742 mmHg 98%
    21:00 +1°C° 0.2 mm 2 m/s 742 mmHg 98%
    22:00 +1°C° 0.2 mm 2 m/s 742 mmHg 98%
    23:00 +1°C° 0.2 mm 2 m/s 741 mmHg 98%

    Demain, 19 Février, Mercredi

    Heure Température Précipitation Vent Pression Humidité
    00:00 0°C° 0 mm 3 m/s 741 mmHg 98%
    01:00 0°C° 0 mm 3 m/s 742 mmHg 98%
    02:00 -1°C° 0 mm 4 m/s 742 mmHg 97%
    03:00 -1°C° 0 mm 4 m/s 742 mmHg 97%
    04:00 -1°C° 0 mm 4 m/s 742 mmHg 97%
    05:00 -1°C° 0 mm 4 m/s 741 mmHg 96%
    06:00 -1°C° 0 mm 4 m/s 742 mmHg 95%
    07:00 -1°C° 0 mm 4 m/s 742 mmHg 94%
    08:00 -1°C° 0 mm 4 m/s 743 mmHg 93%
    09:00 -1°C° 0 mm 4 m/s 743 mmHg 92%
    10:00 0°C° 0 mm 4 m/s 743 mmHg 92%
    11:00 0°C° 0 mm 4 m/s 743 mmHg 92%
    12:00 0°C° 0 mm 4 m/s 743 mmHg 92%
    13:00 0°C° 0 mm 4 m/s 743 mmHg 92%
    14:00 0°C° 0 mm 4 m/s 743 mmHg 91%
    15:00 +1°C° 0 mm 3 m/s 743 mmHg 90%
    16:00 +1°C° 0 mm 3 m/s 743 mmHg 89%
    17:00 0°C° 0 mm 3 m/s 743 mmHg 88%
    18:00 0°C° 0 mm 3 m/s 744 mmHg 88%
    19:00 0°C° 0 mm 3 m/s 744 mmHg 89%
    20:00 0°C° 0 mm 3 m/s 745 mmHg 89%
    21:00 0°C° 0 mm 3 m/s 745 mmHg 90%
    22:00 +1°C° 0 mm 2 m/s 745 mmHg 90%
    23:00 -1°C° 0 mm 2 m/s 745 mmHg 90%

    Après-demain, 20 Février, Jeudi

    Heure Température Précipitation Vent Pression Humidité
    00:00 -1°C° 0 mm 2 m/s 745 mmHg 89%
    01:00 -1°C° 0 mm 2 m/s 745 mmHg 89%
    02:00 -1°C° 0 mm 2 m/s 746 mmHg 88%
    03:00 -1°C° 0 mm 2 m/s 746 mmHg 87%
    04:00 -1°C° 0 mm 2 m/s 746 mmHg 87%
    05:00 -1°C° 0 mm 2 m/s 746 mmHg 87%
    06:00 -1°C° 0 mm 2 m/s 746 mmHg 86%
    07:00 -1°C° 0 mm 2 m/s 747 mmHg 86%
    08:00 -1°C° 0 mm 3 m/s 747 mmHg 85%
    09:00 0°C° 0 mm 3 m/s 747 mmHg 85%
    10:00 0°C° 0 mm 3 m/s 747 mmHg 85%
    11:00 +1°C° 0 mm 3 m/s 747 mmHg 85%
    12:00 +1°C° 0 mm 3 m/s 748 mmHg 86%
    13:00 +1°C° 0 mm 3 m/s 748 mmHg 88%
    14:00 +2°C° 0 mm 2 m/s 748 mmHg 89%
    15:00 +2°C° 0 mm 2 m/s 748 mmHg 90%
    16:00 +1°C° 0 mm 2 m/s 748 mmHg 91%
    17:00 +1°C° 0 mm 2 m/s 748 mmHg 93%
    18:00 +1°C° 0 mm 2 m/s 748 mmHg 92%
    19:00 +2°C° 0 mm 1 m/s 749 mmHg 92%
    20:00 +2°C° 0 mm 1 m/s 749 mmHg 92%
    21:00 +2°C° 0 mm 1 m/s 749 mmHg 92%
    22:00 +2°C° 0 mm 1 m/s 750 mmHg 92%
    23:00 +1°C° 0 mm 2 m/s 750 mmHg 91%

    21 Février, Vendredi

    Heure Température Précipitation Vent Pression Humidité
    00:00 -1°C° 0 mm 2 m/s 750 mmHg 92%
    01:00 -1°C° 0 mm 2 m/s 750 mmHg 92%
    02:00 -1°C° 0 mm 2 m/s 750 mmHg 92%
    03:00 -1°C° 0 mm 2 m/s 750 mmHg 93%
    04:00 -1°C° 0 mm 2 m/s 750 mmHg 94%
    05:00 -1°C° 0 mm 2 m/s 750 mmHg 94%
    06:00 -1°C° 0 mm 2 m/s 750 mmHg 94%
    07:00 -1°C° 0 mm 2 m/s 750 mmHg 93%
    08:00 -1°C° 0 mm 2 m/s 750 mmHg 93%
    15:00 +1°C° 0 mm 3 m/s 749 mmHg 91%
    16:00 0°C° 0 mm 3 m/s 749 mmHg 92%
    17:00 -1°C° 0 mm 3 m/s 748 mmHg 93%
    18:00 -1°C° 0 mm 3 m/s 749 mmHg 92%
    19:00 -1°C° 0 mm 3 m/s 749 mmHg 91%
    20:00 -1°C° 0 mm 3 m/s 749 mmHg 90%
    21:00 -2°C° 0 mm 3 m/s 749 mmHg 90%
    22:00 -2°C° 0 mm 3 m/s 749 mmHg 90%
    23:00 -2°C° 0 mm 3 m/s 749 mmHg 89%

    22 Février, Samedi

    Heure Température Précipitation Vent Pression Humidité
    00:00 -2°C° 0 mm 3 m/s 749 mmHg 89%
    01:00 -2°C° 0 mm 3 m/s 749 mmHg 89%
    02:00 -4°C° 0 mm 3 m/s 749 mmHg 88%
    03:00 -4°C° 0 mm 3 m/s 749 mmHg 89%
    04:00 -4°C° 0 mm 3 m/s 748 mmHg 90%
    05:00 -5°C° 0 mm 3 m/s 748 mmHg 91%
    06:00 -4°C° 0 mm 3 m/s 749 mmHg 90%
    07:00 -4°C° 0 mm 3 m/s 749 mmHg 90%
    08:00 -4°C° 0 mm 3 m/s 749 mmHg 89%
    09:00 -3°C° 0 mm 4 m/s 749 mmHg 85%
    10:00 -2°C° 0 mm 4 m/s 749 mmHg 81%
    11:00 -1°C° 0 mm 4 m/s 749 mmHg 77%
    12:00 -1°C° 0 mm 4 m/s 748 mmHg 77%
    13:00 -1°C° 0 mm 4 m/s 748 mmHg 77%
    14:00 0°C° 0 mm 4 m/s 748 mmHg 77%
    15:00 -1°C° 0 mm 4 m/s 747 mmHg 80%
    16:00 -1°C° 0 mm 4 m/s 747 mmHg 84%
    17:00 -2°C° 0 mm 4 m/s 747 mmHg 87%
    18:00 -2°C° 0 mm 4 m/s 746 mmHg 89%
    19:00 -2°C° 0 mm 5 m/s 746 mmHg 90%
    20:00 -2°C° 0 mm 5 m/s 746 mmHg 92%
    21:00 -2°C° 0 mm 5 m/s 745 mmHg 91%
    22:00 -3°C° 0 mm 6 m/s 744 mmHg 89%
    23:00 -3°C° 0 mm 6 m/s 743 mmHg 88%

    23 Février, Dimanche

    Heure Température Précipitation Vent Pression Humidité
    00:00 -3°C° 0 mm 7 m/s 742 mmHg 89%
    01:00 -4°C° 0 mm 8 m/s 740 mmHg 90%
    02:00 -4°C° 0 mm 8 m/s 739 mmHg 92%
    03:00 -4°C° 0.6 mm 9 m/s 738 mmHg 93%
    04:00 -4°C° 0.6 mm 9 m/s 736 mmHg 94%
    05:00 -4°C° 0.6 mm 10 m/s 735 mmHg 95%
    06:00 -4°C° 0.4 mm 9 m/s 734 mmHg 96%
    07:00 -3°C° 0.4 mm 9 m/s 733 mmHg 96%
    08:00 -2°C° 0.4 mm 8 m/s 732 mmHg 96%
    09:00 -2°C° 1 mm 8 m/s 731 mmHg 96%
    10:00 -2°C° 1 mm 7 m/s 731 mmHg 96%
    11:00 -2°C° 1 mm 7 m/s 730 mmHg 97%
    12:00 -1°C° 0.1 mm 7 m/s 730 mmHg 90%
    13:00 -1°C° 0.1 mm 7 m/s 730 mmHg 84%
    14:00 0°C° 0.1 mm 7 m/s 730 mmHg 77%
    15:00 -1°C° 0 mm 6 m/s 731 mmHg 78%
    16:00 -2°C° 0 mm 6 m/s 731 mmHg 80%
    17:00 -2°C° 0 mm 6 m/s 731 mmHg 81%
    18:00 -3°C° 0 mm 6 m/s 732 mmHg 83%
    19:00 -3°C° 0 mm 6 m/s 732 mmHg 84%
    20:00 -3°C° 0 mm 6 m/s 733 mmHg 85%
    21:00 -3°C° 0 mm 6 m/s 733 mmHg 85%
    22:00 -2°C° 0 mm 5 m/s 733 mmHg 85%
    23:00 -4°C° 0 mm 5 m/s 733 mmHg 85%
    Voir plus